"TOA5","AWS1","CR1000","7964","CR1000.Std.14","CPU:AWS1_114.CR1","64363","TBL110"
"TIMESTAMP","RECORD","Wind_spd_WVc(1)","Wind_spd_WVc(2)","Air_Temp_Avg","Humidity_Avg","SW_upper_Wm2_Avg","Rain_Tot","Press_Avg","Issui_Tot","Depth_cm","SR50A_Raw","Quality","Ground_Temp_Avg(1)","Ground_Temp_Avg(2)","SW_lower_Wm2_Avg","Albedo_Avg","SWC_per(1)","SWC_per(2)","Period(1)","Period(2)"
"TS","RN","","","","","","","","","","","","","","","","","","",""
"","","WVc","WVc","Avg","Avg","Avg","Tot","Avg","Tot","Smp","Smp","Smp","Avg","Avg","Avg","Avg","Smp","Smp","Smp","Smp"
"2017-04-26 00:00:00",285325,0.047,171.1,5.795,92.6,0,0,871.5311,0,-5.789,3.204,189,4.397,2.479,0,0,52.94,61.82,34.02,36.09
"2017-04-26 00:10:00",285326,0.114,166.5,5.723,91.4,0,0,871.3519,0,-5.69,3.204,185,4.38,2.534,0,0,53,61.76,34.03,36.08
"2017-04-26 00:20:00",285327,0.251,341.3,5.818,90.1,0.0589744,0,871.2888,0,-5.536,3.2,189,4.33,2.563,0.003790837,0.016,52.94,61.76,34.02,36.08
"2017-04-26 00:30:00",285328,0.039,207.2,5.977,87.5,0.03538464,0,871.196,0,-5.791,3.205,193,4.307,2.576,0,0,52.88,61.76,34,36.08
"2017-04-26 00:40:00",285329,0,0,5.526,90.9,0,0,871.0296,0,-5.69,3.205,194,4.311,2.581,0,0,52.94,61.7,34.02,36.06
"2017-04-26 00:50:00",285330,0.038,104.3,5.547,92.7,0,0,871.0317,0,-5.715,3.204,189,4.311,2.581,0.003790837,0,52.94,61.7,34.02,36.06
"2017-04-26 01:00:00",285331,0.035,73.7,5.644,93.1,0,0,870.8274,0,-5.69,3.204,194,4.256,2.581,0,0,52.94,61.7,34.02,36.06
"2017-04-26 01:10:00",285332,0.345,135.9,5.532,96.6,0,0,870.7031,0,-5.638,3.204,194,4.199,2.588,0,0,52.94,61.7,34.02,36.06
"2017-04-26 01:20:00",285333,0.479,150.2,5.456,100,0,0,870.4544,0,-5.664,3.205,194,4.221,2.628,0,0,52.88,61.64,34,36.05
"2017-04-26 01:30:00",285334,0.231,136,5.306,100,0,0,870.29,0,-5.615,3.205,194,4.224,2.686,0,0,52.88,61.64,34,36.05
"2017-04-26 01:40:00",285335,0.25,113.1,5.436,99.7,0,0,870.2015,0,-5.638,3.204,189,4.214,2.673,0,0,52.88,61.64,34,36.05
"2017-04-26 01:50:00",285336,0.397,161.4,5.51,97.6,0,0,870.0267,0,-5.538,3.203,189,4.146,2.655,0,0,52.88,61.64,34,36.05
"2017-04-26 02:00:00",285337,0.156,318.7,5.472,96.3,0,0,869.9656,0,-5.589,3.204,189,4.13,2.652,0,0,52.88,61.64,34,36.05
"2017-04-26 02:10:00",285338,0.132,136.8,5.464,97.6,0,0,869.7739,0,-5.539,3.204,189,4.114,2.664,0,0,52.88,61.58,34,36.04
"2017-04-26 02:20:00",285339,0.125,124.6,5.317,98.6,0,0,869.5316,0,-5.589,3.205,180,4.128,2.667,0,0,52.88,61.58,34,36.04
"2017-04-26 02:30:00",285340,0.193,93.3,5.288,99.9,0,0,869.4536,0,-5.614,3.205,176,4.138,2.667,0,0,52.88,61.58,34,36.04
"2017-04-26 02:40:00",285341,0.181,117.7,5.289,100,0,0,869.2766,0,-5.539,3.205,176,4.128,2.667,0,0,52.83,61.58,33.99,36.04
"2017-04-26 02:50:00",285342,0.143,80.6,5.211,100,0,0,869.2597,0,-5.589,3.205,175,4.058,2.667,0,0,52.88,61.58,34,36.04
"2017-04-26 03:00:00",285343,0.015,68.01,5.302,100,0,0,869.0469,0,-5.589,3.205,176,4.047,2.667,0,0,52.83,61.58,33.99,36.04
"2017-04-26 03:10:00",285344,0.03,175.8,5.298,99.5,0,0,869.0154,0,-5.387,3.203,192,4.043,2.667,0,0,52.83,61.58,33.99,36.04
"2017-04-26 03:20:00",285345,0.02,103.9,5.177,99.8,0,0,868.8679,0,-5.639,3.206,176,4.051,2.667,0,0,52.83,61.58,33.99,36.04
"2017-04-26 03:30:00",285346,0.275,125.9,5.123,100,0,0,868.8089,0,-5.589,3.206,175,4.051,2.667,0,0,52.77,61.58,33.98,36.04
"2017-04-26 03:40:00",285347,0.429,140.7,4.936,100,0,0,868.8005,0,-5.439,3.206,181,4.051,2.668,0,0,52.83,61.58,33.99,36.04
"2017-04-26 03:50:00",285348,0.188,134.5,4.864,100,0,0,868.7984,0,-5.489,3.206,180,4.05,2.678,0,0,52.83,61.52,33.99,36.02
"2017-04-26 04:00:00",285349,0.397,116.2,4.862,100,0,0,868.7667,0,-5.439,3.206,179,4.04,2.724,0,0,52.83,61.52,33.99,36.02
"2017-04-26 04:10:00",285350,0.151,99.2,4.928,100,0,0,868.5919,0,-5.439,3.206,180,3.98,2.731,0,0,52.77,61.52,33.98,36.02
"2017-04-26 04:20:00",285351,0.18,93.5,4.936,100,0,0,868.5139,0,-5.338,3.205,180,3.931,2.735,0,0,52.83,61.52,33.99,36.02
"2017-04-26 04:30:00",285352,0.248,139,4.95,100,0,0,868.4612,0,-5.514,3.206,176,3.952,2.705,0,0,52.77,61.52,33.98,36.02
"2017-04-26 04:40:00",285353,0.872,146.4,5.28,96.1,0.2123079,0,868.3096,0,-5.386,3.2,180,3.964,2.68,0.231241,0.51,52.77,61.52,33.98,36.02
"2017-04-26 04:50:00",285354,1.29,158.2,6.069,85.6,0.2752139,0,868.1937,0,-5.485,3.199,174,3.965,2.674,0.2350319,0.624,52.77,61.52,33.98,36.02
"2017-04-26 05:00:00",285355,0.923,155.4,6.153,84.7,0,0,868.2505,0,-5.384,3.198,194,3.965,2.745,0,0,52.77,61.46,33.98,36.01
"2017-04-26 05:10:00",285356,0.918,158.4,6.153,85.7,0.8059835,0,868.1726,0,-5.485,3.199,180,3.965,2.754,0.01516335,0.008,52.72,61.46,33.96,36.01
"2017-04-26 05:20:00",285357,0.603,146.3,6.161,86.5,3.385131,0,868.0904,0,-5.636,3.2,188,3.965,2.754,0.625488,0.178,52.72,61.46,33.96,36.01
"2017-04-26 05:30:00",285358,0.458,132.6,6.147,87.2,5.6065,0,868.004,0,-5.536,3.2,189,3.965,2.754,1.307839,0.231,52.72,61.46,33.96,36.01
"2017-04-26 05:40:00",285359,0.242,145.3,6.109,87.7,6.534364,0,867.9787,0,-5.536,3.2,190,3.94,2.751,1.580779,0.238,52.72,61.46,33.96,36.01
"2017-04-26 05:50:00",285360,0.417,100,6.111,88.2,11.00069,0,867.7596,0,-5.586,3.2,189,3.865,2.749,2.99097,0.268,52.72,61.4,33.96,36
"2017-04-26 06:00:00",285361,0.408,152.4,6.299,86.8,16.33591,0,867.6068,0,-5.56,3.198,189,3.807,2.723,4.674101,0.286,52.72,61.4,33.96,36
"2017-04-26 06:10:00",285362,0.246,51.81,6.486,85.7,13.6742,0,867.7462,0,-5.508,3.197,190,3.802,2.712,3.798418,0.277,52.72,61.4,33.96,36
"2017-04-26 06:20:00",285363,0.246,42.75,6.491,86,15.47488,0,867.6725,0,-5.534,3.198,190,3.821,2.709,4.279854,0.276,52.66,61.4,33.95,36
"2017-04-26 06:30:00",285364,0.327,89,6.376,87.3,16.52463,0,867.6911,0,-5.459,3.198,189,3.862,2.715,4.556585,0.276,52.66,61.4,33.95,36
"2017-04-26 06:40:00",285365,0.328,260.2,6.319,88.2,15.93095,0,867.7086,0,-5.586,3.199,194,3.874,2.724,4.317763,0.271,52.66,61.4,33.95,36
"2017-04-26 06:50:00",285366,0.396,81.1,6.254,88.4,11.41744,0,867.7281,0,-5.535,3.199,194,3.878,2.753,2.972016,0.26,52.72,61.34,33.96,35.98
"2017-04-26 07:00:00",285367,0.649,123.6,6.199,89.2,20.42087,0,867.6867,0,-5.485,3.199,190,3.878,2.762,5.686255,0.278,52.72,61.34,33.96,35.98
"2017-04-26 07:10:00",285368,0.543,134.6,6.225,90.5,25.83865,0,867.4836,0,-5.585,3.199,190,3.878,2.762,7.304942,0.282,52.72,61.34,33.96,35.98
"2017-04-26 07:20:00",285369,0.507,126.6,6.268,93.5,23.31062,0,867.5227,0,-5.535,3.199,194,3.878,2.761,6.505075,0.278,52.72,61.34,33.96,35.98
"2017-04-26 07:30:00",285370,0.689,124.2,6.254,95.3,23.21232,0,867.45,0,-5.586,3.199,194,3.878,2.74,6.52782,0.28,52.66,61.28,33.95,35.97
"2017-04-26 07:40:00",285371,0.473,124,6.345,95.5,43.44841,0,867.2853,0,-5.534,3.198,189,3.878,2.749,12.72963,0.293,52.66,61.28,33.95,35.97
"2017-04-26 07:50:00",285372,0.715,152.2,6.6,92.5,89.31083,0,867.1202,0,-5.584,3.197,186,3.878,2.756,26.37664,0.295,52.72,61.28,33.96,35.97
"2017-04-26 08:00:00",285373,0.375,141.9,6.894,89.2,98.08622,0,866.9818,0,-5.505,3.194,186,3.877,2.809,28.38578,0.289,52.66,61.28,33.95,35.97
"2017-04-26 08:10:00",285374,0.815,121,7.137,87.5,72.29475,0,866.7568,0,-5.479,3.193,186,3.872,2.839,20.81169,0.288,52.66,61.28,33.95,35.97
"2017-04-26 08:20:00",285375,0.637,120.1,7.181,88.2,63.44859,0,866.6602,0,-5.429,3.193,181,3.859,2.84,18.4917,0.291,52.66,61.22,33.95,35.96
"2017-04-26 08:30:00",285376,0.239,47.93,6.998,94.9,36.37541,0,866.6534,0,-5.558,3.196,178,3.869,2.84,10.72428,0.294,52.66,61.22,33.95,35.96
"2017-04-26 08:40:00",285377,0.251,10.16,6.709,100,25.07582,0,866.6486,0,-5.583,3.198,177,3.875,2.839,6.952367,0.277,52.66,61.22,33.95,35.96
"2017-04-26 08:50:00",285378,0.373,48.32,6.437,100,21.29702,0,866.5558,0,-5.527,3.198,195,3.871,2.83,5.894583,0.276,52.6,61.22,33.94,35.96
"2017-04-26 09:00:00",285379,0.149,43.58,6.25,100,28.97461,0,866.5131,0,-5.427,3.198,180,3.864,2.818,7.941395,0.274,52.6,61.22,33.94,35.96
"2017-04-26 09:10:00",285380,0.511,29.78,6.162,100,43.66331,0,866.6447,0,-6.064,3.205,192,3.867,2.827,12.0507,0.275,52.6,61.22,33.94,35.96
"2017-04-26 09:20:00",285381,0.689,133.1,6.193,100,86.56546,0,866.4089,0,-6.04,3.204,182,3.854,2.837,24.31791,0.281,52.6,61.16,33.94,35.94
"2017-04-26 09:30:00",285382,0.602,134.2,6.277,100,113.6235,0,866.3816,0,-6.242,3.205,181,3.813,2.839,31.89975,0.28,52.66,61.16,33.95,35.94
"2017-04-26 09:40:00",285383,0.485,149.6,6.536,100,89.33824,0,866.1544,0,-5.988,3.201,186,3.794,2.84,24.91714,0.279,52.6,61.16,33.94,35.94
"2017-04-26 09:50:00",285384,0.355,126.5,6.764,100,60.53475,0,866.1465,0,-6.34,3.204,186,3.794,2.838,16.93353,0.28,52.6,61.16,33.94,35.94
"2017-04-26 10:00:00",285385,0.316,30.51,6.751,100,61.01818,0,866.1437,0,-6.214,3.203,173,3.847,2.837,16.88799,0.276,52.6,61.16,33.94,35.94
"2017-04-26 10:10:00",285386,0.291,334.8,6.752,100,73.37557,0,866.0146,0,-6.443,3.205,174,3.913,2.839,20.21264,0.275,52.6,61.16,33.94,35.94
"2017-04-26 10:20:00",285387,0.254,49.81,6.865,100,66.44045,0.5,865.9134,0,-5.684,3.197,187,3.955,2.84,18.0671,0.272,52.6,61.16,33.94,35.94
"2017-04-26 10:30:00",285388,0.579,138.9,6.785,100,76.98909,0,865.8418,0,-5.353,3.193,182,3.943,2.84,21.05809,0.272,52.55,61.1,33.92,35.93
"2017-04-26 10:40:00",285389,0.585,65.97,6.886,100,58.24666,0,865.8523,0,-5.277,3.193,178,3.93,2.838,15.58781,0.267,52.55,61.1,33.92,35.93
"2017-04-26 10:50:00",285390,0.509,108.6,6.872,100,59.12282,0.5,865.8186,0,-5.3,3.193,177,3.918,2.836,15.83785,0.267,52.6,61.1,33.94,35.93
"2017-04-26 11:00:00",285391,0.396,59.43,6.912,100,74.24683,0,865.6163,0,-5.021,3.19,185,3.904,2.833,19.98477,0.269,52.55,61.1,33.92,35.93
"2017-04-26 11:10:00",285392,0.517,128.1,6.995,100,67.40244,0.5,865.3911,0,-5.352,3.193,194,3.932,2.835,17.91891,0.264,52.6,61.1,33.94,35.93
"2017-04-26 11:20:00",285393,0.48,81,7.097,100,71.31523,0,865.351,0,-5.327,3.192,193,3.986,2.836,19.22318,0.269,52.55,61.1,33.92,35.93
"2017-04-26 11:30:00",285394,0.556,109.1,7.076,100,63.77067,0,865.1699,0,-5.731,3.196,172,4.048,2.831,16.99423,0.265,52.55,61.04,33.92,35.92
"2017-04-26 11:40:00",285395,0.516,119.6,7.167,100,70.4488,0,864.9551,0,-5.371,3.192,194,4.036,2.804,18.9309,0.268,52.55,61.04,33.92,35.92
"2017-04-26 11:50:00",285396,0.506,83.3,7.19,100,52.51663,0.5,864.8792,0,-5.421,3.192,193,4.004,2.785,13.63132,0.258,52.6,61.04,33.94,35.92
"2017-04-26 12:00:00",285397,0.363,81.6,7.27,100,67.14455,0.5,864.8792,0,-5.567,3.193,185,3.984,2.756,17.37623,0.258,52.55,61.04,33.92,35.92
"2017-04-26 12:10:00",285398,0.631,108.9,7.246,100,65.8522,0,864.7529,0,-5.46,3.193,192,3.943,2.732,16.79554,0.255,52.6,61.04,33.94,35.92
"2017-04-26 12:20:00",285399,0.443,103.3,7.21,100,91.25426,0.5,864.6896,0,-5.207,3.19,192,3.964,2.726,23.94015,0.262,52.6,61.04,33.94,35.92
"2017-04-26 12:30:00",285400,0.65,136.1,7.225,100,86.6306,0,864.7971,0,-5.406,3.192,192,4.087,2.734,22.65125,0.261,52.66,61.04,33.95,35.92
"2017-04-26 12:40:00",285401,0.656,131.8,7.243,100,86.13183,0.5,864.6285,0,-5.247,3.191,170,4.061,2.762,22.52148,0.261,52.77,61.04,33.98,35.92
"2017-04-26 12:50:00",285402,0.539,92.2,7.215,100,69.16161,0.5,864.5022,0,-5.312,3.191,170,4.024,2.763,17.57799,0.253,52.77,61.04,33.98,35.92
"2017-04-26 13:00:00",285403,0.544,105.4,7.27,100,101.3686,0.5,864.4348,0,-5.254,3.19,171,3.984,2.8,26.44892,0.26,52.88,61.1,34,35.93
"2017-04-26 13:10:00",285404,0.702,142,7.219,100,91.50377,0.5,864.3716,0,-4.797,3.187,187,4.084,2.831,23.43525,0.255,53,61.1,34.03,35.93
"2017-04-26 13:20:00",285405,0.534,118,7.16,100,49.52637,0.5,864.359,0,-4.973,3.188,192,4.137,2.83,12.20254,0.246,53.11,61.1,34.06,35.93
"2017-04-26 13:30:00",285406,0.618,134.9,7.256,100,85.59315,0,864.1715,0,-5.152,3.189,179,4.093,2.847,22.14695,0.258,53.22,61.16,34.08,35.94
"2017-04-26 13:40:00",285407,0.706,116.7,7.254,100,94.14327,0.5,864.1125,0,-5.105,3.189,179,4.095,2.851,24.29228,0.257,53.39,61.22,34.13,35.96
"2017-04-26 13:50:00",285408,0.855,109.4,7.228,100,119.2611,0.5,863.9293,0,-5.132,3.189,171,4.226,2.855,31.24699,0.261,53.5,61.22,34.15,35.96
"2017-04-26 14:00:00",285409,0.468,131.7,7.378,100,124.4375,0,863.8851,0,-4.927,3.187,189,4.193,2.855,31.76235,0.254,53.67,61.22,34.19,35.96
"2017-04-26 14:10:00",285410,0.708,132.8,7.207,100,76.41195,0,863.7861,0,-4.974,3.188,187,4.219,2.848,19.52835,0.255,53.67,61.28,34.19,35.97
"2017-04-26 14:20:00",285411,0.808,148,7.104,100,65.43336,0.5,863.4975,0,-5.153,3.19,177,4.287,2.845,16.57596,0.253,53.78,61.4,34.22,36
"2017-04-26 14:30:00",285412,0.519,87.8,7.106,100,48.00613,0.5,863.3185,0,-5.027,3.189,185,4.293,2.846,12.00189,0.25,53.78,61.46,34.22,36.01
"2017-04-26 14:40:00",285413,0.773,119.1,7.12,100,64.93605,0.5,863.1816,0,-5.236,3.191,185,4.269,2.851,16.4779,0.253,53.78,61.52,34.22,36.02
"2017-04-26 14:50:00",285414,1.001,127,7.044,100,52.85487,0,863.1036,0,-5.213,3.192,193,4.257,2.85,13.07878,0.245,53.9,61.52,34.25,36.02
"2017-04-26 15:00:00",285415,0.702,34.28,7.029,100,51.64024,0.5,862.8867,0,-5.288,3.192,193,4.401,2.831,13.05603,0.252,53.95,61.64,34.26,36.05
"2017-04-26 15:10:00",285416,0.638,94.1,7.075,100,46.30738,0,862.8888,0,-5.091,3.19,185,4.392,2.854,11.45316,0.247,53.95,61.7,34.26,36.06
"2017-04-26 15:20:00",285417,0.438,90.1,7.063,100,46.64733,1,862.8214,0,-5.35,3.192,193,4.385,2.858,11.39677,0.243,53.95,61.82,34.26,36.09
"2017-04-26 15:30:00",285418,0.545,38.54,7.097,100,40.21102,0.5,862.8446,0,-5.511,3.194,184,4.479,2.903,9.498519,0.235,54.07,61.88,34.29,36.11
"2017-04-26 15:40:00",285419,0.309,34.12,6.992,100,27.97799,1,862.6929,0,-5.539,3.195,194,4.539,2.974,6.223798,0.221,54.18,61.94,34.32,36.12
"2017-04-26 15:50:00",285420,0.729,34.3,6.915,100,35.58088,0,862.6066,0,-5.588,3.196,190,4.507,2.981,8.14932,0.226,54.24,62.24,34.33,36.19
"2017-04-26 16:00:00",285421,0.424,40.73,6.816,100,17.285,1,862.4338,0,-5.562,3.196,186,4.481,2.977,3.650078,0.207,54.35,62.72,34.36,36.3
"2017-04-26 16:10:00",285422,0.11,345.6,6.707,100,14.05014,2.5,862.4949,0,-5.545,3.197,187,4.586,2.986,2.90347,0.202,54.52,63.26,34.4,36.42
"2017-04-26 16:20:00",285423,0.001,45.75,6.681,100,11.63283,1,862.3602,0,-5.498,3.196,197,4.631,2.994,2.36152,0.201,54.69,63.69,34.44,36.51
"2017-04-26 16:30:00",285424,0.279,38.6,6.762,100,23.54922,0,862.3517,0,-6.134,3.202,221,4.673,2.98,5.231082,0.221,54.69,63.87,34.44,36.55
"2017-04-26 16:40:00",285425,0.382,70.92,6.658,100,19.48859,0.5,862.3517,0,-5.201,3.193,274,4.655,2.933,4.203933,0.216,54.63,64.12,34.42,36.61
"2017-04-26 16:50:00",285426,0.218,39.68,6.673,100,18.56498,0,862.337,0,-6.14,3.203,206,4.679,2.96,4.116812,0.222,54.63,64.3,34.42,36.65
"2017-04-26 17:00:00",285427,0.124,12.01,6.654,100,29.39634,0.5,862.2927,0,-6.288,3.204,199,4.805,3.04,6.486024,0.22,54.58,64.54,34.41,36.7
"2017-04-26 17:10:00",285428,0.06,21.69,6.714,100,35.56417,0,862.0147,0,-6.385,3.204,198,4.812,3.087,7.782296,0.218,54.58,64.79,34.41,36.76
"2017-04-26 17:20:00",285429,0.033,202.8,6.796,100,30.66158,0.5,861.8463,0,-5.908,3.2,197,4.788,3.089,6.508614,0.209,54.58,64.85,34.41,36.77
"2017-04-26 17:30:00",285430,0,0,6.654,100,12.34509,1,861.7472,0,-5.911,3.201,198,4.786,3.093,2.172112,0.173,54.58,65.03,34.41,36.81
"2017-04-26 17:40:00",285431,0,0,6.65,100,12.00696,0.5,861.5892,0,-5.759,3.199,188,4.776,3.061,2.217597,0.182,54.63,65.28,34.42,36.87
"2017-04-26 17:50:00",285432,0.09,46.84,6.67,100,7.426763,0.5,861.3829,0,-5.278,3.194,180,4.749,3.038,1.262335,0.167,54.63,65.77,34.42,36.97
"2017-04-26 18:00:00",285433,0.306,54.2,6.638,100,3.962979,1,861.3534,0,-5.959,3.201,194,4.746,3.132,0.5193312,0.126,54.69,66.26,34.44,37.08
"2017-04-26 18:10:00",285434,0.338,91.7,6.674,100,2.394311,0.5,861.4523,0,-6.24,3.204,181,4.815,3.178,0.1857471,0.076,54.69,66.33,34.44,37.1
"2017-04-26 18:20:00",285435,0.787,115.9,6.567,100,2.795363,1,861.366,0,-5.685,3.199,194,4.893,3.184,0.2994737,0.103,54.75,66.33,34.45,37.1
"2017-04-26 18:30:00",285436,0.755,116.2,6.421,100,1.348538,0.5,861.3408,0,-6.038,3.203,185,4.914,3.184,0,0,54.8,66.33,34.46,37.1
"2017-04-26 18:40:00",285437,0.471,97.6,6.399,100,0.4206783,0.5,861.3323,0,-6.317,3.206,189,4.913,3.183,0,0,54.8,66.33,34.46,37.1
"2017-04-26 18:50:00",285438,0.362,113.3,6.317,100,0.02752115,0,861.1343,0,-5.686,3.2,190,4.907,3.167,0,0,54.8,66.33,34.46,37.1
"2017-04-26 19:00:00",285439,0.561,91.7,6.273,100,0,0.5,861.088,0,-5.535,3.199,198,4.897,3.121,0,0,54.8,66.33,34.46,37.1
"2017-04-26 19:10:00",285440,0.687,116.5,6.243,100,0,0.5,860.9258,0,-5.637,3.2,196,4.885,3.222,0,0,54.8,66.33,34.46,37.1
"2017-04-26 19:20:00",285441,0.504,109.6,6.15,100,0,0,860.8266,0,-6.573,3.21,197,4.878,3.271,0,0,54.8,66.33,34.46,37.1
"2017-04-26 19:30:00",285442,0.386,134.3,6.153,100,0,0.5,860.6304,0,-6.193,3.206,185,4.877,3.272,0,0,54.8,66.33,34.46,37.1
"2017-04-26 19:40:00",285443,0.116,63.46,6.192,100,0,0.5,860.6869,0,-5.966,3.204,177,4.881,3.272,0,0,54.8,66.33,34.46,37.1
"2017-04-26 19:50:00",285444,0.319,325.5,6.151,100,0.07863254,1,860.8685,0,-5.89,3.203,186,4.885,3.245,0,0,54.8,66.33,34.46,37.1
"2017-04-26 20:00:00",285445,0.01,149,6.168,100,0,0.5,861.0787,0,-6.42,3.208,189,4.873,3.204,0,0,54.8,66.33,34.46,37.1
"2017-04-26 20:10:00",285446,0,0,6.133,100,0,0.5,861.1136,0,-5.84,3.203,184,4.866,3.243,0,0,54.86,66.33,34.48,37.1
"2017-04-26 20:20:00",285447,0,0,6.096,100,0.003931627,0.5,861.1331,0,-6.648,3.211,192,4.866,3.298,0,0,54.86,66.33,34.48,37.1
"2017-04-26 20:30:00",285448,0,0,6.01,100,0,0.5,861.2982,0,-6.497,3.21,177,4.882,3.353,0,0,54.86,66.26,34.48,37.08
"2017-04-26 20:40:00",285449,0,0,5.987,100,0.007863254,0.5,861.2113,0,-5.385,3.199,192,4.904,3.352,0,0,54.86,66.26,34.48,37.08
"2017-04-26 20:50:00",285450,0,0,5.958,100,0,0.5,861.0893,0,-5.234,3.198,196,4.911,3.358,0,0,54.8,66.26,34.46,37.08
"2017-04-26 21:00:00",285451,0,0,5.902,100,0.003931627,0,860.9307,0,-4.931,3.195,194,4.915,3.353,0,0,54.86,66.26,34.48,37.08
"2017-04-26 21:10:00",285452,0,0,5.864,100,0.03145302,0.5,860.9235,0,-5.157,3.197,197,4.916,3.317,0,0,54.8,66.33,34.46,37.1
"2017-04-26 21:20:00",285453,0,0,5.829,100,0.09435904,0.5,860.8723,0,-4.88,3.195,194,4.916,3.318,0,0,54.8,66.26,34.46,37.08
"2017-04-26 21:30:00",285454,0,0,5.846,100,0.0589744,0,860.8361,0,-4.93,3.195,194,4.916,3.36,0,0,54.8,66.26,34.46,37.08
"2017-04-26 21:40:00",285455,0,0,5.82,100,0.2123079,0.5,860.7908,0,-4.905,3.195,195,4.916,3.4,0,0,54.8,66.26,34.46,37.08
"2017-04-26 21:50:00",285456,0.286,50.45,5.824,100,0.08649579,0.5,860.6141,0,-5.083,3.197,195,4.916,3.445,0,0,54.8,66.26,34.46,37.08
"2017-04-26 22:00:00",285457,0.394,293.1,5.618,100,0,0.5,860.4518,0,-4.983,3.198,185,4.916,3.44,0,0,54.8,66.26,34.46,37.08
"2017-04-26 22:10:00",285458,0.327,187,5.386,100,0,0.5,860.3799,0,-4.984,3.199,194,4.909,3.428,0,0,54.75,66.26,34.45,37.08
"2017-04-26 22:20:00",285459,0.405,146.4,5.228,100,0,0.5,860.3969,0,-4.782,3.198,195,4.866,3.407,0,0,54.75,66.26,34.45,37.08
"2017-04-26 22:30:00",285460,0.565,281,5.057,100,0,1,860.4034,0,-4.884,3.2,195,4.826,3.404,0,0,54.8,66.33,34.46,37.1
"2017-04-26 22:40:00",285461,0.289,241.5,4.954,100,0,0.5,860.4114,0,-4.708,3.199,194,4.805,3.404,0,0,54.86,66.26,34.48,37.08
"2017-04-26 22:50:00",285462,0.333,34.17,4.881,100,0,0.5,860.4149,0,-4.833,3.201,194,4.758,3.421,0,0,54.8,66.26,34.46,37.08
"2017-04-26 23:00:00",285463,0.744,28.08,4.586,100,0,0.5,860.4053,0,-4.834,3.202,190,4.783,3.45,0,0,54.86,66.2,34.48,37.07
"2017-04-26 23:10:00",285464,0.87,330.8,4.432,100,0,0.5,860.3156,0,-4.985,3.204,184,4.799,3.448,0,0,54.86,66.26,34.48,37.08
"2017-04-26 23:20:00",285465,0.907,255.9,4.428,100,0,0,860.1767,0,-4.733,3.202,184,4.826,3.446,0,0,54.86,66.26,34.48,37.08
"2017-04-26 23:30:00",285466,0.969,169.4,4.313,100,0,0.5,860.0988,0,-4.834,3.204,193,4.83,3.446,0,0,54.86,66.26,34.48,37.08
"2017-04-26 23:40:00",285467,1.016,163,4.172,100,0,0.5,859.9196,0,-4.834,3.204,188,4.83,3.479,0,0,54.8,66.26,34.46,37.08
"2017-04-26 23:50:00",285468,0.726,170.2,4.157,100,0,0,860.0439,0,-4.784,3.204,189,4.818,3.525,0,0,54.8,66.2,34.46,37.07
